Location: Boston
(42.3580°N, 71.0600°W)
Time: 10:16:27
(UTC-04:00)

ISS - Visible Passes

Search period start: 22 October 2019 00:00
Search period end: 01 November 2019 00:00
Orbit: 411 x 421 km, 51.6° (Epoch: 22 October)

Date Brightness Start Highest point End Pass type
(mag) Time Alt. Az. Time Alt. Az. Time Alt. Az.
23 Oct -1.2 06:13:28 10° S 06:16:07 22° SE 06:18:46 10° E visible
24 Oct -0.7 05:26:08 10° SSE 05:27:43 13° SE 05:29:17 10° ESE visible
25 Oct -3.2 06:12:08 10° SW 06:15:27 59° SE 06:18:46 10° ENE visible
26 Oct -2.3 05:25:34 24° S 05:26:55 33° SE 05:30:00 10° ENE visible
27 Oct -0.9 04:39:33 17° ESE 04:39:33 17° ESE 04:40:59 10° E visible
27 Oct -3.6 06:12:29 17° WSW 06:14:56 54° NNW 06:18:15 10° NE visible
28 Oct -3.9 05:26:19 87° NNE 05:26:19 87° NNE 05:29:39 10° NE visible
29 Oct -0.9 04:39:59 18° ENE 04:39:59 18° ENE 04:40:58 10° ENE visible
29 Oct -2.5 06:12:53 19° WNW 06:14:33 28° NNW 06:17:32 10° NE visible
30 Oct -2.6 05:26:27 34° N 05:26:27 34° N 05:28:58 10° NE visible
31 Oct -0.6 04:39:55 13° NE 04:39:55 13° NE 04:40:23 10° NE visible
31 Oct -1.9 06:12:49 15° NW 06:14:18 19° NNW 06:16:49 10° NE visible
